Terminal Aerodrome Forecast
Issued by NWS Cleveland, OH

Home | Current Version | Previous Version | Graphics & Text | Print | Product List | Glossary On
Versions: 1 2 3 4 5 6 7 8 9 10 11 12 13 14 15 16 17 18 19 20 21 22 23
000
FTUS41 KCLE 220253 AAB
TAFCLE
TAF AMD
KCLE 220253Z 2203/2306 VRB03KT P6SM FEW100 SCT250
     FM221100 32008KT P6SM BKN080 OVC120
     FM221600 36012G20KT P6SM SCT025 OVC035
     FM230200 VRB03KT P6SM SCT035=

USA.gov is the U.S. government's official web portal to all federal, state and local government web resources and services.